| time (UTC) | temp F | wind direction | speed knots | gust knots | rain 1hr in | rain 24hr in | rain mn in | humidity % | barometer mb |
| 20260831193013 | 95 | 167 | 6.1 | 13.9 | 0.00 | 0.00 | 0.00 | 29 | 999.5 |
| 20260831191508 | 94 | 259 | 4.3 | 9.6 | 0.00 | 0.00 | 0.00 | 30 | 999.7 |
| 20260831190008 | 93 | 289 | 2.6 | 9.6 | 0.00 | 0.00 | 0.00 | 31 | 999.8 |
| 20260831184506 | 93 | 244 | 8.7 | 10.4 | 0.00 | 0.00 | 0.00 | 31 | 1000.0 |
| 20260831183004 | 94 | 275 | 3.5 | 7.0 | 0.00 | 0.00 | 0.00 | 30 | 1000.2 |
| 20260831181601 | 93 | 86 | 5.2 | 8.7 | 0.00 | 0.00 | 0.00 | 32 | 1000.4 |
| 20260831180054 | 92 | 15 | 3.5 | 7.0 | 0.00 | 0.00 | 0.00 | 33 | 1000.6 |
| 20260831174553 | 91 | 221 | 4.3 | 10.4 | 0.00 | 0.00 | 0.00 | 34 | 1000.6 |
| 20260831173049 | 91 | 162 | 3.5 | 11.3 | 0.00 | 0.00 | 0.00 | 35 | 1000.7 |
| 20260831171558 | 89 | 51 | 1.7 | 13.9 | 0.00 | 0.00 | 0.00 | 37 | 1000.9 |
| 20260831170054 | 90 | 121 | 5.2 | 8.7 | 0.00 | 0.00 | 0.00 | 37 | 1001.0 |
| 20260831164552 | 89 | 137 | 1.7 | 8.7 | 0.00 | 0.00 | 0.00 | 39 | 1001.2 |
| 20260831163048 | 87 | 51 | 2.6 | 7.8 | 0.00 | 0.00 | 0.00 | 41 | 1001.2 |
| 20260831161537 | 86 | 144 | 4.3 | 8.7 | 0.00 | 0.00 | 0.00 | 44 | 1001.2 |
| 20260831160042 | 85 | 142 | 3.5 | 8.7 | 0.00 | 0.00 | 0.00 | 45 | 1001.1 |
| 20260831154529 | 84 | 107 | 4.3 | 8.7 | 0.00 | 0.00 | 0.00 | 47 | 1001.0 |
| 20260831153048 | 83 | 146 | 4.3 | 8.7 | 0.00 | 0.00 | 0.00 | 49 | 1000.9 |
| 20260831151534 | 82 | 142 | 6.1 | 9.6 | 0.00 | 0.00 | 0.00 | 51 | 1000.8 |
| 20260831150033 | 81 | 196 | 4.3 | 9.6 | 0.00 | 0.00 | 0.00 | 52 | 1000.8 |
| 20260831144523 | 80 | 165 | 7.0 | 10.4 | 0.00 | 0.00 | 0.00 | 54 | 1000.8 |
| 20260831143035 | 78 | 138 | 9.6 | 13.9 | 0.00 | 0.00 | 0.00 | 56 | 1000.8 |
| 20260831141525 | 78 | 138 | 10.4 | 14.8 | 0.00 | 0.00 | 0.00 | 56 | 1000.8 |
| 20260831140043 | 77 | 140 | 10.4 | 14.8 | 0.00 | 0.00 | 0.00 | 58 | 1000.6 |
| 20260831134518 | 77 | 134 | 11.3 | 17.4 | 0.00 | 0.00 | 0.00 | 59 | 1000.4 |
| 20260831133029 | 76 | 141 | 7.8 | 10.4 | 0.00 | 0.00 | 0.00 | 59 | 1000.3 |
| 20260831131516 | 76 | 134 | 7.8 | 12.2 | 0.00 | 0.00 | 0.00 | 59 | 1000.2 |
| 20260831130019 | 76 | 138 | 6.1 | 7.8 | 0.00 | 0.00 | 0.00 | 59 | 1000.2 |
| 20260831124529 | 76 | 178 | 3.5 | 6.1 | 0.00 | 0.00 | 0.00 | 59 | 1000.2 |
| 20260831123010 | 76 | 155 | 3.5 | 8.7 | 0.00 | 0.00 | 0.00 | 59 | 999.9 |
| 20260831121520 | 76 | 142 | 7.0 | 13.9 | 0.00 | 0.00 | 0.00 | 58 | 999.7 |
| 20260831120017 | 76 | 148 | 12.2 | 16.5 | 0.00 | 0.00 | 0.00 | 57 | 999.4 |
| 20260831114504 | 77 | 147 | 12.2 | 19.1 | 0.00 | 0.00 | 0.00 | 57 | 999.4 |
| 20260831113004 | 77 | 142 | 13.9 | 19.1 | 0.00 | 0.00 | 0.00 | 56 | 999.2 |
| 20260831111501 | 77 | 137 | 13.9 | 17.4 | 0.00 | 0.00 | 0.00 | 55 | 999.1 |
| 20260831110100 | 78 | 146 | 13.9 | 19.1 | 0.00 | 0.00 | 0.00 | 55 | 999.1 |
| 20260831104557 | 78 | 140 | 14.8 | 20.0 | 0.00 | 0.00 | 0.00 | 54 | 999.1 |
| 20260831103056 | 78 | 141 | 15.6 | 20.9 | 0.00 | 0.00 | 0.00 | 53 | 999.1 |
| 20260831101604 | 78 | 142 | 15.6 | 20.9 | 0.00 | 0.00 | 0.00 | 53 | 999.0 |
| 20260831100053 | 79 | 142 | 16.5 | 20.0 | 0.00 | 0.00 | 0.00 | 52 | 998.9 |
| 20260831094604 | 79 | 144 | 14.8 | 17.4 | 0.00 | 0.00 | 0.00 | 52 | 998.8 |
| 20260831093050 | 79 | 139 | 13.9 | 19.1 | 0.00 | 0.00 | 0.00 | 52 | 998.9 |
| 20260831091547 | 79 | 137 | 13.9 | 18.2 | 0.00 | 0.00 | 0.00 | 51 | 999.0 |
| 20260831090045 | 80 | 146 | 13.9 | 19.1 | 0.00 | 0.00 | 0.00 | 51 | 999.0 |
| 20260831080038 | 81 | 141 | 16.5 | 20.0 | 0.00 | 0.00 | 0.00 | 50 | 998.9 |
| 20260831074540 | 81 | 141 | 14.8 | 19.1 | 0.00 | 0.00 | 0.00 | 49 | 999.1 |
| 20260831073040 | 82 | 136 | 15.6 | 20.9 | 0.00 | 0.00 | 0.00 | 49 | 999.0 |
| 20260831071539 | 82 | 138 | 17.4 | 22.6 | 0.00 | 0.00 | 0.00 | 49 | 999.2 |
| 20260831070105 | 83 | 142 | 17.4 | 21.7 | 0.00 | 0.00 | 0.00 | 48 | 999.2 |
| 20260831064537 | 83 | 149 | 17.4 | 25.2 | 0.00 | 0.00 | 0.00 | 47 | 999.3 |
| 20260831063036 | 84 | 146 | 19.1 | 23.5 | 0.00 | 0.00 | 0.00 | 47 | 999.2 |
| 20260831061535 | 84 | 151 | 20.0 | 26.9 | 0.00 | 0.00 | 0.00 | 46 | 999.2 |
| 20260831060044 | 84 | 155 | 20.9 | 25.2 | 0.00 | 0.00 | 0.00 | 46 | 999.2 |
| 20260831054535 | 85 | 146 | 20.9 | 28.7 | 0.00 | 0.00 | 0.00 | 45 | 999.1 |
| 20260831053035 | 85 | 153 | 20.9 | 30.4 | 0.00 | 0.00 | 0.00 | 45 | 999.1 |
| 20260831051548 | 86 | 144 | 26.1 | 33.0 | 0.00 | 0.00 | 0.00 | 44 | 999.1 |
| 20260831050036 | 86 | 144 | 25.2 | 37.4 | 0.00 | 0.00 | 0.00 | 43 | 999.1 |
| 20260831044535 | 87 | 146 | 25.2 | 33.9 | 0.00 | 0.00 | 0.00 | 41 | 999.1 |
| 20260831043031 | 87 | 147 | 22.6 | 29.5 | 0.00 | 0.00 | 0.00 | 38 | 999.0 |
| 20260831041535 | 88 | 144 | 20.9 | 29.5 | 0.00 | 0.00 | 0.00 | 37 | 999.0 |
| 20260831040042 | 89 | 139 | 20.0 | 31.3 | 0.00 | 0.00 | 0.00 | 35 | 998.8 |
| 20260831034530 | 89 | 146 | 22.6 | 31.3 | 0.00 | 0.00 | 0.00 | 35 | 998.6 |
| 20260831033032 | 90 | 137 | 22.6 | 29.5 | 0.00 | 0.00 | 0.00 | 34 | 998.5 |
| 20260831031527 | 91 | 128 | 21.7 | 28.7 | 0.00 | 0.00 | 0.00 | 33 | 998.2 |
| 20260831030029 | 91 | 140 | 21.7 | 26.9 | 0.00 | 0.00 | 0.00 | 33 | 998.0 |
| 20260831024527 | 92 | 134 | 20.0 | 25.2 | 0.00 | 0.00 | 0.00 | 33 | 997.7 |
| 20260831023036 | 93 | 128 | 18.2 | 22.6 | 0.00 | 0.00 | 0.00 | 33 | 997.6 |
| 20260831021546 | 93 | 137 | 19.1 | 25.2 | 0.00 | 0.00 | 0.00 | 32 | 997.3 |
| 20260831020028 | 94 | 126 | 13.9 | 19.1 | 0.00 | 0.00 | 0.00 | 27 | 997.2 |
| 20260831014527 | 95 | 142 | 9.6 | 13.9 | 0.00 | 0.00 | 0.00 | 24 | 997.0 |
| 20260831013025 | 95 | 130 | 12.2 | 17.4 | 0.00 | 0.00 | 0.00 | 24 | 996.9 |
| 20260831011531 | 96 | 137 | 10.4 | 16.5 | 0.00 | 0.00 | 0.00 | 23 | 996.9 |
| 20260831010044 | 96 | 132 | 10.4 | 16.5 | 0.00 | 0.00 | 0.00 | 23 | 996.7 |
| 20260831004525 | 97 | 134 | 12.2 | 17.4 | 0.00 | 0.00 | 0.00 | 23 | 996.7 |
| 20260831003030 | 97 | 90 | 11.3 | 16.5 | 0.00 | 0.00 | 0.00 | 24 | 996.5 |
| 20260831001548 | 97 | 113 | 7.8 | 15.6 | 0.00 | 0.00 | 0.00 | 24 | 996.5 |
| 20260831000029 | 98 | 107 | 11.3 | 20.0 | 0.00 | 0.00 | 0.00 | 24 | 996.4 |
| 20260830234523 | 98 | 124 | 5.2 | 10.4 | 0.00 | 0.00 | 0.00 | 21 | 996.5 |
| 20260830233028 | 98 | 129 | 4.3 | 11.3 | 0.00 | 0.00 | 0.00 | 21 | 996.6 |
| 20260830231531 | 99 | 138 | 12.2 | 17.4 | 0.00 | 0.00 | 0.00 | 21 | 996.6 |
| 20260830230019 | 99 | 51 | 4.3 | 11.3 | 0.00 | 0.00 | 0.00 | 21 | 996.7 |
| 20260830224544 | 98 | 81 | 5.2 | 10.4 | 0.00 | 0.00 | 0.00 | 21 | 996.8 |
| 20260830223022 | 98 | 111 | 4.3 | 9.6 | 0.00 | 0.00 | 0.00 | 22 | 997.0 |
| 20260830221518 | 98 | 83 | 11.3 | 16.5 | 0.00 | 0.00 | 0.00 | 22 | 997.0 |
| 20260830220024 | 98 | 39 | 3.5 | 9.6 | 0.00 | 0.00 | 0.00 | 22 | 997.2 |
| 20260830214541 | 97 | 9 | 6.1 | 13.0 | 0.00 | 0.00 | 0.00 | 23 | 997.3 |
| 20260830213035 | 97 | 25 | 9.6 | 15.6 | 0.00 | 0.00 | 0.00 | 22 | 997.5 |
| 20260830203116 | 97 | 196 | 4.3 | 9.6 | 0.00 | 0.00 | 0.00 | 25 | 998.6 |
| 20260830201558 | 96 | 306 | 8.7 | 13.0 | 0.00 | 0.00 | 0.00 | 25 | 998.9 |
| 20260830200059 | 97 | 41 | 2.6 | 9.6 | 0.00 | 0.00 | 0.00 | 26 | 999.1 |
| 20260830194551 | 96 | 325 | 4.3 | 8.7 | 0.00 | 0.00 | 0.00 | 29 | 999.4 |